Location: Byszew
(52.1813°N, 19.2693°E)
Time: 16:26:57
(UTC+00:00)

SPROUT - Pass Details

Date: 04 July 2022
Orbit: 588 x 598 km, 97.9° (Epoch: 09 August)

Event Time Altitude Azimuth Distance (km) Brightness Sun altitude
Exits shadow 23:22:41 23° 168° (SSE) 1,254 ? -14.6°
Maximum altitude 23:25:12 84° 255° (WSW) 600 ? -14.6°
Drops below altitude 10° 23:29:24 10° 345° (NNW) 1,932 ? -14.5°
Sets 23:31:35 0° 346° (NNW) 2,840 ? -14.4°
